COSMOS 1275 DEB, 42225

Orbit data source: Space-Track

COSMOS 1275 DEB, 42225 is space debris in LEO originally from a launch on Thu, 04 Jun 1981 UTC launched from the Plesetsk Missile And Space Complex (PKMTR). Debris objects in space refer to the collection of defunct objects orbiting the Earth. Examples of debris include non-operational satellites, rocket bodies, and fragments generated from explosions, collisions, or faulty payload assembly.

Loading next visibility...
Identifier
42225, 1981-053UR
Orbit
LEO
Country
Flag of CISCIS
Related business
Manufacturer
Unknown
Mission
Spacecraft
Bus & Motor
Unknown
Mass
Unknown
Launch date (UTC)
1981-06-04 (45 years ago)
Launch vehicle
Unknown
Launch site
Plesetsk Missile And Space Complex (PKMTR)
Object type
Payload
Rocket body
Debris
Shape & HBR
Unknown shape, 0.1 m
Radar Cross Section
Small (<0.1 m²)

Expand to show TLE details & history
Last TLE update: 2 weeks ago

TLE from 2 weeks ago
0 COSMOS 1275 DEB
1 42225U 81053UR  26134.93409764  .00001198  00000-0  57648-3 0  9992
2 42225  83.1472 213.5260 0032940 252.9284 106.8287 14.17792496641385
Epoch: 2026-05-14T22:25Z
TLE epoch observation values (Epoch: 2026-05-14T22:25:06.036Z)
Latitude
-0.00003°
Longitude
4.5782°
Altitude
842.742 km
Speed
7.428 km/s
True Right ascension
14h 14m 06s
True Declination
0° 00' 00"
Sunlit
Object was in full shadow at epoch
Visualization orbit readout
Latitude
Unknown
Longitude
Unknown
Altitude
Unknown
Speed
Unknown
Apparent Right ascension
Unknown
Apparent Declination
Unknown
Sunlit
N/A
Visualization observer readout
Local Sidereal Time
20:13:55
Azimuth
Unknown
Elevation
Unknown
Doppler factor
Unknown
Orbital elements
Apogee altitude
853.653 km
Perigee altitude
806.167 km
Semi-major axis
7,208.047 km
Eccentricity
0.00329
Inclination
83.1472°
RAAN
213.526°
Arg. of periapsis
252.9284°
True anomaly
107.18957°
Mean anomaly
106.8287°
Eccentric anomaly
107.00918°
Mean motion
3.54664 °/min
Orbital period
101.5 mins
BSTAR
0.00057648
Loading maneuver chart data...
Computing Atmospheric mass density...
Loading historical data...
Loading historical data...
Loading historical data...
Loading historical data...
Loading historical data...
Loading historical data...
Loading historical data...

Documentation

Showing up to 5 results
|